Regional Weather Roundup
Issued by NWS

Home | Current Version | Previous Version | Graphics & Text | Print | Product List | Glossary On
Versions: 1 2 3 4 5 6 7 8 9 10 11 12 13 14 15 16 17 18 19 20 21 22 23 24 25 26 27 28 29 30 31 32 33 34 35 36 37 38 39 40 41 42 43 44 45 46 47 48 49 50
000
ASUS43 KIND 100009
RWRIN

WEATHER ROUNDUP FOR INDIANA
NATIONAL WEATHER SERVICE INDIANAPOLIS IN
700 PM EST FRI DEC 09 2016

NOTE: "FAIR" INDICATES FEW OR NO CLOUDS BELOW 12,000 FEET WITH NO
SIGNIFICANT WEATHER AND/OR OBSTRUCTIONS TO VISIBILITY.

* - STATION DOES NOT REPORT WEATHER SUCH AS PRECIPITATION OR FOG.

+ - STATION NOT QUALITY CONTROLLED BY THE NATIONAL WEATHER SERVICE.
    USE DATA WITH CAUTION...ESPECIALLY DEWPOINT AND RELATIVE
    HUMIDITY OBSERVATIONS.

INZ001>003-010>013-019-020-100100-
NORTHWEST INDIANA

CITY           SKY/WX    TMP DP  RH WIND       PRES   REMARKS
GARY /AIRPORT/ PTCLDY    23  14  68 W10       30.53R WCI  12
KNOX *+        CLEAR     21   0  39 W8        30.51R WCI  12
LA PORTE +     CLOUDY    23  14  68 W12       30.50S WCI  11
6HR MIN TEMP:  23; 6HR MAX TEMP:  25;

MICHIGAN CITY+ CLOUDY    25  14  63 SW10      30.50S WCI  15
MONTICELLO +   CLOUDY    24  11  57 W8        30.53R WCI  15
6HR MIN TEMP:  24; 6HR MAX TEMP:  27;

RENSSELAER +     N/A     25  19  80 W6        30.54R WCI  18
VALPARAISO     PTCLDY    22  12  65 W8        30.52R WCI  12
6HR MIN TEMP:  22; 6HR MAX TEMP:  28;


$$

LMZ046-743>745-100100-
SOUTHERN LAKE MICHIGAN

STATION/POSITION TIME  TEMP    WIND        PRES    WAVE
                       AIR SEA DIR/SP/G            HT
                 (UTC) (F)     (DEG/KT/KT) (MB)    (FT)

$$

INZ004-005-014>016-021>024-100100-
NORTH CENTRAL INDIANA

CITY           SKY/WX    TMP DP  RH WIND       PRES   REMARKS
ELKHART        FLURRIES  25  18  74 W10       30.47S WCI  15
GOSHEN         CLOUDY    24  15  68 W13       30.47S WCI  12
6HR MIN TEMP:  24; 6HR MAX TEMP:  29; 6HR PCP: TRACE;

LOGANSPORT +   CLOUDY    25  16  68 W10G16    30.53R WCI  15
PERU/GRISSOM   FLURRIES  24  18  76 W9        30.50R WCI  15
6HR MIN TEMP:  24; 6HR MAX TEMP:  28; 6HR PCP: TRACE;

ROCHESTER +    CLOUDY    28  19  69 W7        30.51R WCI  21
SOUTH BEND     FLURRIES  22  16  78 SW13      30.48S WCI  10
6HR MIN TEMP:  22; 6HR MAX TEMP:  25; 6HR PCP:  0.02;

WARSAW +       MOCLDY    23  12  63 W10       30.48S WCI  12

$$

INZ006>009-017-018-025>027-100100-
NORTHEAST INDIANA

CITY           SKY/WX    TMP DP  RH WIND       PRES   REMARKS
ANGOLA *+      CLOUDY    23  21  93 W9        30.43S WCI  13
AUBURN +       CLOUDY    27  19  74 W12       30.47S WCI  16
FORT WAYNE     FLURRIES  26  15  63 W15       30.48R WCI  14
6HR MIN TEMP:  26; 6HR MAX TEMP:  30; 6HR PCP: TRACE;

HUNTINGTON +   CLOUDY    24  13  61 W9        30.49S WCI  15
6HR MIN TEMP:  24; 6HR MAX TEMP:  29;

KENDALLVILLE + CLOUDY    24  19  81 W12G17    30.45S WCI  13

$$

INZ028-029-035-036-043>045-051>053-100100-
WEST CENTRAL INDIANA

CITY           SKY/WX    TMP DP  RH WIND       PRES   REMARKS
CRAWFORDSVL +  CLOUDY    23  16  75 W7        30.54S WCI  14
6HR MIN TEMP:  23; 6HR MAX TEMP:  25;

GREENCASTLE +  CLOUDY    25  18  74 W3        30.55R
LAFAYETTE      CLOUDY    24  16  71 W6        30.55R WCI  17
6HR MIN TEMP:  24; 6HR MAX TEMP:  27; 6HR PCP: TRACE;

TERRE HAUTE    CLOUDY    25  16  68 W7        30.57S WCI  17
6HR MIN TEMP:  25; 6HR MAX TEMP:  27; 6HR PCP: TRACE;


$$

INZ030>032-037>040-046>048-054>057-064-065-100100-
CENTRAL INDIANA

CITY           SKY/WX    TMP DP  RH WIND       PRES   REMARKS
CP ATTERBURY + CLOUDY    27  16  63 SW7       30.56R WCI  19
COLUMBUS       FLURRIES  25  16  68 SW12      30.57R WCI  14
FRANKFORT +    FLURRIES  27  20  75 W10       30.54R WCI  17
6HR MIN TEMP:  27; 6HR MAX TEMP:  29;

GREENWOOD *+   CLOUDY    26  17  67 W9        30.55R WCI  17
6HR MIN TEMP:  26; 6HR MAX TEMP:  27;

INDIANAPOLIS   FLURRIES  25  15  66 W13       30.53R WCI  14
6HR MIN TEMP:  25; 6HR MAX TEMP:  27; 6HR PCP: TRACE;

-EAGLE CREEK   CLOUDY    26  14  60 W6        30.53R WCI  19
6HR MIN TEMP:  25; 6HR MAX TEMP:  27; 6HR PCP: TRACE;

KOKOMO +       FLURRIES  25  17  72 W13       30.52R WCI  14
6HR MIN TEMP:  24; 6HR MAX TEMP:  28; 6HR PCP: TRACE;

MARION +       CLOUDY    24  19  78 W10       30.51S WCI  14
MT COMFORT *+  CLOUDY    25  18  74 W12       30.53R WCI  14
SHELBYVILLE    CLOUDY    26  15  63 W8        30.53R WCI  18
6HR MIN TEMP:  26; 6HR MAX TEMP:  27; 6HR PCP: TRACE;

ZIONSVILLE +   FLURRIES  24  18  77 W9        30.53R WCI  14
6HR MIN TEMP:  24; 6HR MAX TEMP:  27;


$$

INZ033-034-041-042-049-050-058-059-100100-
EAST CENTRAL INDIANA

CITY           SKY/WX    TMP DP  RH WIND       PRES   REMARKS
MUNCIE         CLOUDY    25  17  72 W9        30.50R WCI  15
6HR MIN TEMP:  25; 6HR MAX TEMP:  27; 6HR PCP: TRACE;


$$

INZ060-061-067>069-081>083-085>088-100100-
SOUTHWEST INDIANA

CITY           SKY/WX    TMP DP  RH WIND       PRES   REMARKS
EVANSVILLE     CLEAR     26  14  60 NW3       30.58F
6HR MIN TEMP:  26; 6HR MAX TEMP:  33;

HUNTINGBURG *+ CLOUDY    26  16  65 NW5       30.57F WCI  20
6HR MIN TEMP:  25; 6HR MAX TEMP:  27;

WASHINGTON +   CLOUDY    26  19  74 NW6       30.58R WCI  19
6HR MIN TEMP:  25; 6HR MAX TEMP:  27;


$$

INZ062-063-066-070>080-084-089>092-100100-
SOUTH CENTRAL AND SOUTHEAST INDIANA

CITY           SKY/WX    TMP DP  RH WIND       PRES   REMARKS
BLOOMINGTON    CLOUDY    24  15  68 W5        30.55S WCI  18
6HR MIN TEMP:  23; 6HR MAX TEMP:  25; 6HR PCP: TRACE;

MADISON *+     CLOUDY    27  16  63 SW6       30.57S WCI  20
NORTH VERNON + FLURRIES  25  19  80 SW6       30.55F WCI  18
SEYMOUR +      CLOUDY    27  16  63 W7        30.58R WCI  19

$$





USA.gov is the U.S. government's official web portal to all federal, state and local government web resources and services.